Nå er det jul PDF Skriv ut E-post
Skrevet av Per Norgaard   
tirsdag 22. desember 2009 23:06

Styret vil med dette ønske alle flyvenner en riktig GOD JUL og et GODT NYTTÅR, med håp om mye fint vær og aktiv flyging. Vi sees i hytte og hangar.Smile

Per

 

 
Fuelanlegget er i drift igjen PDF Skriv ut E-post
Skrevet av Carl Jæger   
tirsdag 15. desember 2009 12:19
Det meldes at fuelanlegget nå er klart til bruk.
 
Fuelsituasjonen, forhåpentligvis den siste... PDF Skriv ut E-post
Skrevet av Per Norgaard   
mandag 14. desember 2009 19:39

Begge flyene har blitt fylt opp idag med jerrykanner.

Ellers sier Shell i ettermiddag at anlegget er planlagt åpnet imorgen, men følg med på aktuell Notam. Vi får håpe at denne vanskelige perioden nå er over.

Per

 

Sist oppdatert mandag 14. desember 2009 22:53
 
«StartForrige4142434445464748NesteSiste»

Side 48 av 48
 
METAR
2017/10/20 22:50 ENCN 202250Z AUTO 06016KT 5000 -RA VV010 11/10 Q1013
TAF
2017/10/20 18:37 TAF ENCN 201700Z 2018/2021 08015KT 9000 -RA SCT005 OVC012 TEMPO 2018/2021 09015G25KT 3000 RA BR OVC004 FEW020CB
LN-KFK
Operativ VFR-natt
VFR dag
07:33 - 18:51
Brannvakt
Inaktiv
Banner
Banner
Banner
Banner
Banner